Flag for Singapore Weather past 2 weeks in Singapore, Singapore

Now
82 °F

Partly sunny.


Feels Like: 88 °F
Forecast: 78 / 90 °F
Wind: 2 mph from Northwest

Location: Singapore / Paya Lebar

Current Time: Oct 22, 2014 at 10:25:08 AM

Latest Report: Oct 22, 2014 at 10:00 AM


Visibility: N/A

Pressure: 29.95 "Hg

Humidity: 74%

Dew point: 73 °F

Location of SingaporeLocation

Historic Weather in Singapore — Graph

°F

Singapore temperature yesterday

Maximum temperature yesterday: 86 °F (at 3:00 PM)
Minimum temperature yesterday: 79 °F (at 11:00 AM)
Average temperature yesterday: 82 °F

Past Weeks' High & Low Weather Summary

 TemperatureHumidityPressure
High93 °F (Oct 13, 12:00 PM)100% (Oct 19, 5:00 AM)29.92 "Hg (Oct 19, 5:00 AM)
Low77 °F (Oct 16, 2:00 PM)49% (Oct 10, 3:00 PM)29.71 "Hg (Oct 17, 3:00 PM)
Average85 °F74%29.82 "Hg
* Reported Oct 7 9:00 AM — Oct 22 9:00 AM, Singapore, Weather by CustomWeather, © 2014

Note: Actual official high and low records may vary slightly from our data, if they occured in-between our weather recording intervals... More about our weather records

Advertising

Singapore weather history for previous 24 hours

 ConditionsComfort  
Time TempWeatherWind HumidityBarometerVisibility
9:00 AM
Oct 22
82 °FScattered clouds.6 mph74%29.92 "HgN/A
8:00 AM79 °FPartly sunny.5 mph84%29.89 "HgN/A
7:00 AM79 °FScattered clouds.1 mph89%29.86 "Hg6 mi
6:00 AM79 °FPassing clouds.1 mph89%29.86 "HgN/A
5:00 AM79 °FPassing clouds.1 mph89%29.83 "HgN/A
11:00 PM
Oct 21
79 °FPassing clouds.5 mph89%29.89 "Hg6 mi
10:00 PM79 °FPassing clouds.3 mph89%29.89 "Hg6 mi
9:00 PM79 °FPassing clouds.1 mph89%29.86 "Hg6 mi
8:00 PM79 °FPassing clouds.6 mph89%29.86 "Hg6 mi
7:00 PM81 °FPassing clouds.5 mph89%29.86 "Hg4 mi
6:00 PM81 °FSprinkles. Scattered clouds.7 mph89%29.83 "Hg4 mi
5:00 PM82 °FScattered showers. Scattered clouds.9 mph79%29.83 "Hg5 mi
4:00 PM86 °FThundershowers. Scattered clouds.5 mph70%29.83 "Hg6 mi
3:00 PM86 °FPartly sunny.3 mph66%29.83 "Hg6 mi
2:00 PM82 °FPartly sunny.7 mph79%29.86 "Hg5 mi
1:00 PM84 °FPartly sunny.1 mph74%29.89 "Hg4 mi
12:00 PM82 °FThundershowers. Broken clouds.3 mph79%29.92 "Hg4 mi
11:00 AM79 °FThunderstorms. Partly sunny.3 mph89%29.92 "Hg4 mi
10:00 AM84 °FLots of rain. Scattered clouds.6 mph84%29.92 "Hg4 mi
Weather by CustomWeather, © 2014

See weather overviewHow to use our weather pages